Year,Month,Day,Hour,Minute,Value (Times are PST for temperature in C)
2016,08,25,00,00,15.80
2016,08,25,00,01,15.80
2016,08,25,00,02,15.80
2016,08,25,00,03,15.80
2016,08,25,00,04,15.80
2016,08,25,00,05,15.80
2016,08,25,00,06,15.80
2016,08,25,00,07,15.80
2016,08,25,00,08,15.70
2016,08,25,00,09,15.70
2016,08,25,00,10,15.60
2016,08,25,00,11,15.60
2016,08,25,00,12,15.60
2016,08,25,00,13,15.60
2016,08,25,00,17,15.50
2016,08,25,00,18,15.50
2016,08,25,00,19,15.40
2016,08,25,00,20,15.40
2016,08,25,00,21,15.50
2016,08,25,00,22,15.50
2016,08,25,00,23,15.60
2016,08,25,00,24,15.70
2016,08,25,00,25,15.80
2016,08,25,00,26,15.80
2016,08,25,00,27,16.00
2016,08,25,00,28,16.10
2016,08,25,00,29,16.10
2016,08,25,00,30,16.20
2016,08,25,00,31,16.20
2016,08,25,00,32,16.30
2016,08,25,00,33,16.30
2016,08,25,00,34,16.30
2016,08,25,00,35,16.30
2016,08,25,00,36,16.20
2016,08,25,00,37,16.20
2016,08,25,00,38,16.10
2016,08,25,00,39,16.10
2016,08,25,00,40,16.00
2016,08,25,00,41,16.00
2016,08,25,00,42,16.00
2016,08,25,00,43,15.90
2016,08,25,00,44,15.80
2016,08,25,00,45,15.80
2016,08,25,00,46,15.70
2016,08,25,00,47,15.60
2016,08,25,00,48,15.50
2016,08,25,00,49,15.40
2016,08,25,00,50,15.40
2016,08,25,00,51,15.40
2016,08,25,00,52,15.40
2016,08,25,00,53,15.40
2016,08,25,00,54,15.40
2016,08,25,00,55,15.50
2016,08,25,00,56,15.50
2016,08,25,00,57,15.60
2016,08,25,00,58,15.80
2016,08,25,00,59,15.90
2016,08,25,01,00,16.00
2016,08,25,01,01,16.00
2016,08,25,01,02,16.00
2016,08,25,01,03,15.90
2016,08,25,01,04,15.80
2016,08,25,01,05,15.70
2016,08,25,01,06,15.70
2016,08,25,01,07,15.60
2016,08,25,01,08,15.50
2016,08,25,01,09,15.50
2016,08,25,01,10,15.40
2016,08,25,01,11,15.30
2016,08,25,01,12,15.30
2016,08,25,01,13,15.20
2016,08,25,01,14,15.10
2016,08,25,01,15,15.10
2016,08,25,01,16,15.00
2016,08,25,01,17,14.90
2016,08,25,01,18,14.90
2016,08,25,01,19,14.90
2016,08,25,01,20,14.80
2016,08,25,01,21,14.80
2016,08,25,01,22,14.70
2016,08,25,01,23,14.70
2016,08,25,01,24,14.60
2016,08,25,01,25,14.60
2016,08,25,01,26,14.60
2016,08,25,01,27,14.60
2016,08,25,01,28,14.60
2016,08,25,01,29,14.60
2016,08,25,01,30,14.60
2016,08,25,01,31,14.70
2016,08,25,01,32,14.70
2016,08,25,01,33,14.70
2016,08,25,01,34,14.70
2016,08,25,01,35,14.70
2016,08,25,01,36,14.80
2016,08,25,01,37,14.80
2016,08,25,01,38,14.90
2016,08,25,01,39,14.90
2016,08,25,01,40,15.00
2016,08,25,01,41,15.00
2016,08,25,01,42,15.10
2016,08,25,01,43,15.10
2016,08,25,01,44,15.20
2016,08,25,01,45,15.30
2016,08,25,01,46,15.30
2016,08,25,01,47,15.40
2016,08,25,01,48,15.40
2016,08,25,01,49,15.40
2016,08,25,01,50,15.40
2016,08,25,01,51,15.40
2016,08,25,01,52,15.40
2016,08,25,01,53,15.40
2016,08,25,01,54,15.40
2016,08,25,01,55,15.30
2016,08,25,01,56,15.30
2016,08,25,01,57,15.20
2016,08,25,01,58,15.10
2016,08,25,01,59,15.00
2016,08,25,02,00,14.90
2016,08,25,02,01,14.80
2016,08,25,02,02,14.80
2016,08,25,02,03,14.70
2016,08,25,02,04,14.70
2016,08,25,02,05,14.70
2016,08,25,02,06,14.60
2016,08,25,02,07,14.60
2016,08,25,02,08,14.70
2016,08,25,02,09,14.70
2016,08,25,02,10,14.80
2016,08,25,02,11,14.80
2016,08,25,02,12,14.90
2016,08,25,02,13,14.90
2016,08,25,02,14,15.10
2016,08,25,02,15,15.20
2016,08,25,02,16,15.30
2016,08,25,02,17,15.40
2016,08,25,02,18,15.40
2016,08,25,02,19,15.50
2016,08,25,02,20,15.40
2016,08,25,02,21,15.40
2016,08,25,02,22,15.30
2016,08,25,02,23,15.30
2016,08,25,02,24,15.20
2016,08,25,02,25,15.20
2016,08,25,02,26,15.10
2016,08,25,02,27,15.10
2016,08,25,02,28,15.10
2016,08,25,02,29,15.10
2016,08,25,02,30,15.20
2016,08,25,02,31,15.20
2016,08,25,02,32,15.20
2016,08,25,02,33,15.20
2016,08,25,02,34,15.20
2016,08,25,02,35,15.30
2016,08,25,02,36,15.30
2016,08,25,02,37,15.30
2016,08,25,02,38,15.30
2016,08,25,02,39,15.30
2016,08,25,02,40,15.40
2016,08,25,02,41,15.40
2016,08,25,02,42,15.50
2016,08,25,02,43,15.50
2016,08,25,02,44,15.40
2016,08,25,02,45,15.40
2016,08,25,02,46,15.30
2016,08,25,02,47,15.30
2016,08,25,02,48,15.30
2016,08,25,02,49,15.30
2016,08,25,02,50,15.20
2016,08,25,02,51,15.20
2016,08,25,02,52,15.20
2016,08,25,02,53,15.20
2016,08,25,02,54,15.20
2016,08,25,02,55,15.20
2016,08,25,02,56,15.20
2016,08,25,02,57,15.20
2016,08,25,02,58,15.20
2016,08,25,02,59,15.20
2016,08,25,03,00,15.20
2016,08,25,03,01,15.20
2016,08,25,03,02,15.20
2016,08,25,03,03,15.20
2016,08,25,03,04,15.30
2016,08,25,03,05,15.20
2016,08,25,03,06,15.10
2016,08,25,03,07,15.10
2016,08,25,03,08,15.00
2016,08,25,03,09,15.00
2016,08,25,03,10,14.90
2016,08,25,03,11,14.90
2016,08,25,03,12,14.80
2016,08,25,03,13,14.70
2016,08,25,03,14,14.70
2016,08,25,03,15,14.60
2016,08,25,03,16,14.60
2016,08,25,03,17,14.60
2016,08,25,03,18,14.50
2016,08,25,03,19,14.50
2016,08,25,03,20,14.50
2016,08,25,03,21,14.50
2016,08,25,03,22,14.50
2016,08,25,03,23,14.50
2016,08,25,03,24,14.50
2016,08,25,03,25,14.40
2016,08,25,03,26,14.40
2016,08,25,03,27,14.40
2016,08,25,03,28,14.30
2016,08,25,03,29,14.30
2016,08,25,03,30,14.20
2016,08,25,03,31,14.20
2016,08,25,03,32,14.10
2016,08,25,03,33,14.00
2016,08,25,03,34,14.00
2016,08,25,03,35,13.90
2016,08,25,03,36,13.90
2016,08,25,03,37,13.90
2016,08,25,03,38,13.80
2016,08,25,03,39,13.80
2016,08,25,03,40,13.80
2016,08,25,03,41,13.80
2016,08,25,03,42,13.80
2016,08,25,03,43,13.80
2016,08,25,03,44,13.80
2016,08,25,03,45,13.80
2016,08,25,03,46,13.80
2016,08,25,03,47,13.80
2016,08,25,03,48,13.80
2016,08,25,03,49,13.70
2016,08,25,03,50,13.70
2016,08,25,03,51,13.70
2016,08,25,03,52,13.70
2016,08,25,03,53,13.70
2016,08,25,03,54,13.70
2016,08,25,03,55,13.80
2016,08,25,03,56,13.80
2016,08,25,03,57,13.80
2016,08,25,03,58,13.80
2016,08,25,03,59,13.90
2016,08,25,04,00,13.90
2016,08,25,04,01,13.90
2016,08,25,04,02,13.90
2016,08,25,04,03,14.00
2016,08,25,04,04,14.00
2016,08,25,04,05,14.00
2016,08,25,04,06,14.00
2016,08,25,04,07,14.00
2016,08,25,04,08,14.00
2016,08,25,04,09,13.90
2016,08,25,04,10,13.90
2016,08,25,04,11,14.00
2016,08,25,04,12,14.00
2016,08,25,04,13,14.10
2016,08,25,04,14,14.10
2016,08,25,04,15,14.10
2016,08,25,04,16,14.10
2016,08,25,04,17,14.00
2016,08,25,04,18,14.00
2016,08,25,04,19,13.90
2016,08,25,04,20,13.80
2016,08,25,04,21,13.90
2016,08,25,04,22,13.80
2016,08,25,04,23,13.80
2016,08,25,04,24,13.80
2016,08,25,04,25,13.80
2016,08,25,04,26,13.80
2016,08,25,04,27,13.80
2016,08,25,04,28,13.70
2016,08,25,04,29,13.70
2016,08,25,04,30,13.70
2016,08,25,04,31,13.70
2016,08,25,04,32,13.70
2016,08,25,04,33,13.70
2016,08,25,04,34,13.70
2016,08,25,04,35,13.70
2016,08,25,04,36,13.70
2016,08,25,04,37,13.80
2016,08,25,04,38,13.80
2016,08,25,04,39,13.80
2016,08,25,04,40,13.80
2016,08,25,04,41,13.80
2016,08,25,04,42,13.80
2016,08,25,04,43,13.70
2016,08,25,04,44,13.70
2016,08,25,04,45,13.70
2016,08,25,04,46,13.70
2016,08,25,04,47,13.60
2016,08,25,04,48,13.60
2016,08,25,04,49,13.60
2016,08,25,04,50,13.60
2016,08,25,04,51,13.60
2016,08,25,04,52,13.60
2016,08,25,04,53,13.60
2016,08,25,04,54,13.60
2016,08,25,04,55,13.60
2016,08,25,04,56,13.60
2016,08,25,04,57,13.70
2016,08,25,04,58,13.70
2016,08,25,04,59,13.70
2016,08,25,05,00,13.70
2016,08,25,05,01,13.70
2016,08,25,05,02,13.70
2016,08,25,05,03,13.70
2016,08,25,05,04,13.70
2016,08,25,05,05,13.70
2016,08,25,05,06,13.60
2016,08,25,05,07,13.60
2016,08,25,05,08,13.60
2016,08,25,05,09,13.60
2016,08,25,05,10,13.60
2016,08,25,05,11,13.60
2016,08,25,05,12,13.70
2016,08,25,05,13,13.70
2016,08,25,05,14,13.70
2016,08,25,05,15,13.60
2016,08,25,05,16,13.60
2016,08,25,05,17,13.60
2016,08,25,05,18,13.50
2016,08,25,05,19,13.50
2016,08,25,05,20,13.40
2016,08,25,05,21,13.40
2016,08,25,05,22,13.40
2016,08,25,05,23,13.40
2016,08,25,05,24,13.40
2016,08,25,05,25,13.40
2016,08,25,05,26,13.40
2016,08,25,05,27,13.50
2016,08,25,05,28,13.50
2016,08,25,05,29,13.60
2016,08,25,05,30,13.60
2016,08,25,05,31,13.60
2016,08,25,05,32,13.60
2016,08,25,05,33,13.60
2016,08,25,05,34,13.60
2016,08,25,05,35,13.70
2016,08,25,05,36,13.70
2016,08,25,05,37,13.70
2016,08,25,05,38,13.80
2016,08,25,05,39,13.80
2016,08,25,05,40,13.80
2016,08,25,05,41,13.80
2016,08,25,05,42,13.80
2016,08,25,05,43,13.90
2016,08,25,05,44,13.90
2016,08,25,05,45,14.00
2016,08,25,05,46,14.10
2016,08,25,05,47,14.10
2016,08,25,05,48,14.10
2016,08,25,05,49,14.10
2016,08,25,05,50,14.20
2016,08,25,05,51,14.10
2016,08,25,05,52,14.10
2016,08,25,05,53,14.10
2016,08,25,05,54,14.00
2016,08,25,05,55,14.00
2016,08,25,05,56,13.90
2016,08,25,05,57,13.80
2016,08,25,05,58,13.80
2016,08,25,05,59,13.70
2016,08,25,06,00,13.60
2016,08,25,06,01,13.60
2016,08,25,06,02,13.50
2016,08,25,06,03,13.50
2016,08,25,06,04,13.40
2016,08,25,06,05,13.40
2016,08,25,06,06,13.30
2016,08,25,06,07,13.30
2016,08,25,06,08,13.30
2016,08,25,06,09,13.30
2016,08,25,06,10,13.30
2016,08,25,06,11,13.30
2016,08,25,06,12,13.30
2016,08,25,06,13,13.30
2016,08,25,06,14,13.30
2016,08,25,06,15,13.30
2016,08,25,06,16,13.30
2016,08,25,06,17,13.30
2016,08,25,06,18,13.30
2016,08,25,06,19,13.30
2016,08,25,06,20,13.40
2016,08,25,06,21,13.50
2016,08,25,06,22,13.50
2016,08,25,06,23,13.60
2016,08,25,06,24,13.60
2016,08,25,06,25,13.70
2016,08,25,06,26,13.70
2016,08,25,06,27,13.70
2016,08,25,06,28,13.70
2016,08,25,06,29,13.70
2016,08,25,06,30,13.70
2016,08,25,06,31,13.60
2016,08,25,06,32,13.60
2016,08,25,06,33,13.50
2016,08,25,06,34,13.40
2016,08,25,06,35,13.30
2016,08,25,06,36,13.20
2016,08,25,06,37,13.20
2016,08,25,06,38,13.10
2016,08,25,06,39,13.10
2016,08,25,06,40,13.10
2016,08,25,06,41,13.10
2016,08,25,06,42,13.10
2016,08,25,06,43,13.10
2016,08,25,06,44,13.10
2016,08,25,06,45,13.10
2016,08,25,06,46,13.10
2016,08,25,06,47,13.10
2016,08,25,06,48,13.10
2016,08,25,06,49,13.00
2016,08,25,06,50,13.00
2016,08,25,06,51,13.00
2016,08,25,06,52,12.90
2016,08,25,06,53,12.90
2016,08,25,06,54,12.90
2016,08,25,06,55,12.80
2016,08,25,06,56,12.80
2016,08,25,06,57,12.80
2016,08,25,06,58,12.80
2016,08,25,06,59,12.80
2016,08,25,07,00,12.80
2016,08,25,07,01,12.80
2016,08,25,07,02,12.80
2016,08,25,07,03,12.80
2016,08,25,07,04,12.80
2016,08,25,07,05,12.80
2016,08,25,07,06,12.80
2016,08,25,07,07,12.80
2016,08,25,07,08,12.80
2016,08,25,07,09,12.80
2016,08,25,07,10,12.90
2016,08,25,07,11,12.90
2016,08,25,07,12,12.90
2016,08,25,07,13,13.00
2016,08,25,07,14,13.00
2016,08,25,07,15,13.10
2016,08,25,07,16,13.10
2016,08,25,07,17,13.10
2016,08,25,07,18,13.10
2016,08,25,07,19,13.10
2016,08,25,07,20,13.10
2016,08,25,07,21,13.20
2016,08,25,07,22,13.20
2016,08,25,07,23,13.20
2016,08,25,07,24,13.20
2016,08,25,07,25,13.20
2016,08,25,07,26,13.20
2016,08,25,07,27,13.20
2016,08,25,07,28,13.20
2016,08,25,07,29,13.30
2016,08,25,07,30,13.30
2016,08,25,07,31,13.30
2016,08,25,07,32,13.30
2016,08,25,07,33,13.30
2016,08,25,07,34,13.30
2016,08,25,07,35,13.40
2016,08,25,07,36,13.40
2016,08,25,07,37,13.40
2016,08,25,07,38,13.40
2016,08,25,07,39,13.50
2016,08,25,07,40,13.50
2016,08,25,07,41,13.60
2016,08,25,07,42,13.60
2016,08,25,07,43,13.70
2016,08,25,07,44,13.70
2016,08,25,07,45,13.70
2016,08,25,07,46,13.80
2016,08,25,07,47,13.80
2016,08,25,07,48,13.80
2016,08,25,07,49,13.80
2016,08,25,07,50,13.80
2016,08,25,07,51,13.80
2016,08,25,07,52,13.80
2016,08,25,07,53,13.80
2016,08,25,07,54,13.90
2016,08,25,07,55,13.90
2016,08,25,07,56,14.00
2016,08,25,07,57,14.00
2016,08,25,07,58,14.10
2016,08,25,07,59,14.20
2016,08,25,08,00,14.30
2016,08,25,08,01,14.40
2016,08,25,08,02,14.50
2016,08,25,08,03,14.60
2016,08,25,08,04,14.60
2016,08,25,08,05,14.70
2016,08,25,08,06,14.80
2016,08,25,08,07,14.90
2016,08,25,08,08,14.90
2016,08,25,08,09,15.00
2016,08,25,08,10,15.10
2016,08,25,08,11,15.10
2016,08,25,08,12,15.20
2016,08,25,08,13,15.20
2016,08,25,08,14,15.30
2016,08,25,08,15,15.40
2016,08,25,08,16,15.50
2016,08,25,08,17,15.50
2016,08,25,08,18,15.60
2016,08,25,08,19,15.70
2016,08,25,08,20,15.80
2016,08,25,08,21,15.80
2016,08,25,08,22,15.90
2016,08,25,08,23,16.00
2016,08,25,08,24,16.10
2016,08,25,08,25,16.10
2016,08,25,08,26,16.20
2016,08,25,08,27,16.20
2016,08,25,08,28,16.30
2016,08,25,08,29,16.30
2016,08,25,08,30,16.30
2016,08,25,08,31,16.40
2016,08,25,08,32,16.50
2016,08,25,08,33,16.50
2016,08,25,08,34,16.60
2016,08,25,08,35,16.70
2016,08,25,08,36,16.80
2016,08,25,08,37,16.80
2016,08,25,08,38,16.90
2016,08,25,08,39,17.00
2016,08,25,08,40,17.10
2016,08,25,08,41,17.10
2016,08,25,08,42,17.20
2016,08,25,08,43,17.30
2016,08,25,08,44,17.40
2016,08,25,08,45,17.50
2016,08,25,08,46,17.60
2016,08,25,08,47,17.70
2016,08,25,08,48,17.70
2016,08,25,08,49,17.80
2016,08,25,08,50,17.90
2016,08,25,08,51,18.00
2016,08,25,08,52,18.10
2016,08,25,08,53,18.20
2016,08,25,08,54,18.30
2016,08,25,08,55,18.50
2016,08,25,08,56,18.60
2016,08,25,08,57,18.70
2016,08,25,08,58,18.80
2016,08,25,08,59,18.80
2016,08,25,09,00,18.90
2016,08,25,09,01,19.00
2016,08,25,09,02,19.00
2016,08,25,09,03,19.10
2016,08,25,09,04,19.20
2016,08,25,09,05,19.30
2016,08,25,09,06,19.40
2016,08,25,09,07,19.50
2016,08,25,09,08,19.60
2016,08,25,09,09,19.70
2016,08,25,09,10,19.90
2016,08,25,09,11,20.00
2016,08,25,09,12,20.10
2016,08,25,09,13,20.20
2016,08,25,09,14,20.30
2016,08,25,09,15,20.30
2016,08,25,09,16,20.40
2016,08,25,09,17,20.40
2016,08,25,09,18,20.50
2016,08,25,09,19,20.60
2016,08,25,09,20,20.60
2016,08,25,09,21,20.70
2016,08,25,09,22,20.70
2016,08,25,09,23,20.80
2016,08,25,09,24,20.90
2016,08,25,09,25,21.00
2016,08,25,09,26,21.10
2016,08,25,09,27,21.20
2016,08,25,09,28,21.30
2016,08,25,09,29,21.40
2016,08,25,09,30,21.50
2016,08,25,09,31,21.70
2016,08,25,09,32,21.70
2016,08,25,09,33,21.80
2016,08,25,09,34,21.80
2016,08,25,09,35,21.90
2016,08,25,09,36,22.00
2016,08,25,09,37,22.10
2016,08,25,09,38,22.20
2016,08,25,09,39,22.30
2016,08,25,09,40,22.40
2016,08,25,09,41,22.40
2016,08,25,09,42,22.40
2016,08,25,09,43,22.50
2016,08,25,09,44,22.60
2016,08,25,09,45,22.70
2016,08,25,09,46,22.80
2016,08,25,09,47,22.80
2016,08,25,09,48,22.90
2016,08,25,09,49,23.00
2016,08,25,09,50,23.10
2016,08,25,09,51,23.20
2016,08,25,09,52,23.30
2016,08,25,09,53,23.30
2016,08,25,09,54,23.40
2016,08,25,09,55,23.50
2016,08,25,09,56,23.60
2016,08,25,09,57,23.70
2016,08,25,09,58,23.80
2016,08,25,09,59,23.80
2016,08,25,10,00,23.80
2016,08,25,10,01,23.80
2016,08,25,10,02,23.80
2016,08,25,10,03,23.80
2016,08,25,10,04,23.70
2016,08,25,10,05,23.70
2016,08,25,10,06,23.60
2016,08,25,10,07,23.50
2016,08,25,10,08,23.40
2016,08,25,10,09,23.30
2016,08,25,10,10,23.10
2016,08,25,10,11,23.00
2016,08,25,10,12,22.90
2016,08,25,10,13,22.80
2016,08,25,10,14,22.70
2016,08,25,10,15,22.60
2016,08,25,10,16,22.50
2016,08,25,10,17,22.40
2016,08,25,10,18,22.40
2016,08,25,10,19,22.30
2016,08,25,10,20,22.30
2016,08,25,10,21,22.30
2016,08,25,10,22,22.40
2016,08,25,10,23,22.40
2016,08,25,10,24,22.50
2016,08,25,10,25,22.50
2016,08,25,10,26,22.60
2016,08,25,10,27,22.60
2016,08,25,10,28,22.60
2016,08,25,10,29,22.60
2016,08,25,10,30,22.60
2016,08,25,10,31,22.70
2016,08,25,10,32,22.70
2016,08,25,10,33,22.70
2016,08,25,10,34,22.60
2016,08,25,10,35,22.60
2016,08,25,10,36,22.50
2016,08,25,10,37,22.50
2016,08,25,10,38,22.40
2016,08,25,10,39,22.30
2016,08,25,10,40,22.20
2016,08,25,10,41,22.20
2016,08,25,10,42,22.20
2016,08,25,10,43,22.20
2016,08,25,10,44,22.20
2016,08,25,10,45,22.30
2016,08,25,10,46,22.40
2016,08,25,10,47,22.50
2016,08,25,10,48,22.50
2016,08,25,10,49,22.60
2016,08,25,10,50,22.60
2016,08,25,10,51,22.70
2016,08,25,10,52,22.70
2016,08,25,10,53,22.80
2016,08,25,10,54,22.80
2016,08,25,10,55,22.90
2016,08,25,10,56,22.90
2016,08,25,10,57,22.90
2016,08,25,10,58,23.00
2016,08,25,10,59,23.00
2016,08,25,11,00,23.10
2016,08,25,11,01,23.10
2016,08,25,11,02,23.10
2016,08,25,11,03,23.10
2016,08,25,11,04,23.00
2016,08,25,11,05,23.00
2016,08,25,11,06,22.90
2016,08,25,11,07,22.90
2016,08,25,11,08,22.90
2016,08,25,11,09,22.90
2016,08,25,11,10,22.80
2016,08,25,11,11,22.80
2016,08,25,11,12,22.90
2016,08,25,11,13,22.90
2016,08,25,11,14,23.00
2016,08,25,11,15,23.00
2016,08,25,11,16,23.10
2016,08,25,11,17,23.10
2016,08,25,11,18,23.10
2016,08,25,11,19,23.10
2016,08,25,11,20,23.10
2016,08,25,11,21,23.00
2016,08,25,11,22,22.90
2016,08,25,11,23,23.00
2016,08,25,11,24,23.10
2016,08,25,11,25,23.30
2016,08,25,11,26,23.40
2016,08,25,11,27,23.50
2016,08,25,11,28,23.60
2016,08,25,11,29,23.70
2016,08,25,11,30,23.90
2016,08,25,11,31,24.00
2016,08,25,11,32,24.20
2016,08,25,11,33,24.40
2016,08,25,11,34,24.40
2016,08,25,11,35,24.50
2016,08,25,11,36,24.60
2016,08,25,11,37,24.70
2016,08,25,11,38,24.80
2016,08,25,11,39,24.80
2016,08,25,11,40,24.90
2016,08,25,11,41,25.00
2016,08,25,11,42,25.20
2016,08,25,11,43,25.30
2016,08,25,11,44,25.50
2016,08,25,11,45,25.50
2016,08,25,11,46,25.40
2016,08,25,11,47,25.30
2016,08,25,11,48,25.20
2016,08,25,11,49,25.10
2016,08,25,11,50,25.10
2016,08,25,11,51,25.00
2016,08,25,11,52,24.90
2016,08,25,11,53,24.80
2016,08,25,11,54,24.70
2016,08,25,11,55,24.60
2016,08,25,11,56,24.50
2016,08,25,11,57,24.40
2016,08,25,11,58,24.30
2016,08,25,11,59,24.30
2016,08,25,12,00,24.30
2016,08,25,12,01,24.40
2016,08,25,12,02,24.40
2016,08,25,12,03,24.40
2016,08,25,12,04,24.40
2016,08,25,12,05,24.40
2016,08,25,12,06,24.40
2016,08,25,12,07,24.50
2016,08,25,12,08,24.50
2016,08,25,12,09,24.60
2016,08,25,12,10,24.70
2016,08,25,12,11,24.80
2016,08,25,12,12,24.80
2016,08,25,12,13,24.80
2016,08,25,12,14,24.90
2016,08,25,12,15,25.00
2016,08,25,12,16,25.10
2016,08,25,12,17,25.20
2016,08,25,12,18,25.30
2016,08,25,12,19,25.30
2016,08,25,12,20,25.40
2016,08,25,12,21,25.50
2016,08,25,12,22,25.60
2016,08,25,12,23,25.60
2016,08,25,12,24,25.70
2016,08,25,12,25,25.70
2016,08,25,12,26,25.60
2016,08,25,12,27,25.50
2016,08,25,12,28,25.40
2016,08,25,12,29,25.40
2016,08,25,12,30,25.40
2016,08,25,12,31,25.50
2016,08,25,12,32,25.50
2016,08,25,12,33,25.60
2016,08,25,12,34,25.70
2016,08,25,12,35,25.80
2016,08,25,12,36,26.00
2016,08,25,12,37,26.10
2016,08,25,12,38,26.20
2016,08,25,12,39,26.20
2016,08,25,12,40,26.20
2016,08,25,12,41,26.30
2016,08,25,12,42,26.30
2016,08,25,12,43,26.40
2016,08,25,12,44,26.40
2016,08,25,12,45,26.50
2016,08,25,12,46,26.50
2016,08,25,12,47,26.60
2016,08,25,12,48,26.60
2016,08,25,12,49,26.70
2016,08,25,12,50,26.70
2016,08,25,12,51,26.80
2016,08,25,12,52,26.80
2016,08,25,12,53,26.90
2016,08,25,12,54,26.90
2016,08,25,12,55,26.90
2016,08,25,12,56,26.90
2016,08,25,12,57,27.00
2016,08,25,12,58,27.00
2016,08,25,12,59,27.00
2016,08,25,13,00,27.00
2016,08,25,13,01,27.10
2016,08,25,13,02,27.10
2016,08,25,13,03,27.00
2016,08,25,13,04,26.90
2016,08,25,13,05,26.80
2016,08,25,13,06,26.80
2016,08,25,13,07,26.60
2016,08,25,13,08,26.60
2016,08,25,13,09,26.40
2016,08,25,13,10,26.40
2016,08,25,13,11,26.40
2016,08,25,13,12,26.40
2016,08,25,13,13,26.40
2016,08,25,13,14,26.40
2016,08,25,13,15,26.40
2016,08,25,13,16,26.30
2016,08,25,13,17,26.30
2016,08,25,13,18,26.30
2016,08,25,13,19,26.40
2016,08,25,13,20,26.50
2016,08,25,13,21,26.50
2016,08,25,13,22,26.60
2016,08,25,13,23,26.60
2016,08,25,13,24,26.60
2016,08,25,13,25,26.60
2016,08,25,13,26,26.60
2016,08,25,13,27,26.60
2016,08,25,13,28,26.60
2016,08,25,13,29,26.60
2016,08,25,13,30,26.60
2016,08,25,13,31,26.70
2016,08,25,13,32,26.80
2016,08,25,13,33,26.80
2016,08,25,13,34,26.80
2016,08,25,13,35,26.90
2016,08,25,13,36,27.00
2016,08,25,13,37,26.90
2016,08,25,13,38,26.90
2016,08,25,13,39,26.90
2016,08,25,13,40,26.80
2016,08,25,13,41,26.90
2016,08,25,13,42,26.80
2016,08,25,13,43,26.90
2016,08,25,13,44,27.00
2016,08,25,13,45,27.00
2016,08,25,13,46,27.00
2016,08,25,13,47,27.00
2016,08,25,13,48,27.00
2016,08,25,13,49,27.00
2016,08,25,13,50,27.00
2016,08,25,13,51,26.90
2016,08,25,13,52,26.80
2016,08,25,13,53,26.70
2016,08,25,13,54,26.70
2016,08,25,13,55,26.70
2016,08,25,13,56,26.80
2016,08,25,13,57,27.00
2016,08,25,13,58,27.20
2016,08,25,13,59,27.50
2016,08,25,14,00,27.70
2016,08,25,14,01,27.80
2016,08,25,14,02,27.90
2016,08,25,14,03,28.00
2016,08,25,14,04,28.10
2016,08,25,14,05,28.20
2016,08,25,14,06,28.20
2016,08,25,14,07,28.20
2016,08,25,14,08,28.20
2016,08,25,14,09,28.00
2016,08,25,14,10,27.80
2016,08,25,14,11,27.70
2016,08,25,14,12,27.50
2016,08,25,14,13,27.40
2016,08,25,14,14,27.30
2016,08,25,14,15,27.20
2016,08,25,14,16,27.20
2016,08,25,14,17,27.20
2016,08,25,14,18,27.30
2016,08,25,14,19,27.30
2016,08,25,14,20,27.30
2016,08,25,14,21,27.30
2016,08,25,14,22,27.30
2016,08,25,14,23,27.40
2016,08,25,14,24,27.50
2016,08,25,14,25,27.60
2016,08,25,14,26,27.50
2016,08,25,14,27,27.40
2016,08,25,14,28,27.30
2016,08,25,14,29,27.30
2016,08,25,14,30,27.40
2016,08,25,14,31,27.40
2016,08,25,14,32,27.20
2016,08,25,14,33,27.10
2016,08,25,14,34,26.90
2016,08,25,14,35,26.80
2016,08,25,14,36,26.70
2016,08,25,14,37,26.60
2016,08,25,14,38,26.60
2016,08,25,14,39,26.70
2016,08,25,14,40,26.80
2016,08,25,14,41,27.00
2016,08,25,14,42,27.20
2016,08,25,14,43,27.30
2016,08,25,14,44,27.40
2016,08,25,14,45,27.40
2016,08,25,14,46,27.40
2016,08,25,14,47,27.30
2016,08,25,14,48,27.20
2016,08,25,14,49,27.30
2016,08,25,14,50,27.40
2016,08,25,14,51,27.60
2016,08,25,14,52,27.70
2016,08,25,14,53,27.70
2016,08,25,14,54,27.70
2016,08,25,14,55,27.70
2016,08,25,14,56,27.60
2016,08,25,14,57,27.50
2016,08,25,14,58,27.40
2016,08,25,14,59,27.30
2016,08,25,15,00,27.20
2016,08,25,15,01,27.00
2016,08,25,15,02,26.90
2016,08,25,15,03,26.80
2016,08,25,15,04,26.80
2016,08,25,15,05,26.80
2016,08,25,15,06,26.80
2016,08,25,15,07,26.80
2016,08,25,15,08,26.80
2016,08,25,15,09,26.70
2016,08,25,15,10,26.60
2016,08,25,15,11,26.60
2016,08,25,15,12,26.60
2016,08,25,15,13,26.60
2016,08,25,15,14,26.60
2016,08,25,15,15,26.60
2016,08,25,15,16,26.60
2016,08,25,15,17,26.60
2016,08,25,15,18,26.70
2016,08,25,15,19,26.80
2016,08,25,15,20,26.90
2016,08,25,15,21,27.00
2016,08,25,15,22,27.00
2016,08,25,15,23,27.00
2016,08,25,15,24,27.00
2016,08,25,15,25,26.90
2016,08,25,15,26,26.80
2016,08,25,15,27,26.70
2016,08,25,15,28,26.60
2016,08,25,15,29,26.50
2016,08,25,15,30,26.40
2016,08,25,15,31,26.30
2016,08,25,15,32,26.30
2016,08,25,15,33,26.30
2016,08,25,15,34,26.30
2016,08,25,15,35,26.30
2016,08,25,15,36,26.30
2016,08,25,15,37,26.30
2016,08,25,15,38,26.30
2016,08,25,15,39,26.40
2016,08,25,15,40,26.50
2016,08,25,15,41,26.50
2016,08,25,15,42,26.50
2016,08,25,15,43,26.40
2016,08,25,15,44,26.30
2016,08,25,15,45,26.10
2016,08,25,15,46,25.80
2016,08,25,15,47,25.50
2016,08,25,15,48,25.30
2016,08,25,15,49,25.10
2016,08,25,15,50,24.80
2016,08,25,15,51,24.50
2016,08,25,15,52,24.30
2016,08,25,15,53,24.20
2016,08,25,15,54,24.10
2016,08,25,15,55,24.10
2016,08,25,15,56,24.20
2016,08,25,15,57,24.20
2016,08,25,15,58,24.20
2016,08,25,15,59,24.20
2016,08,25,16,00,24.10
2016,08,25,16,01,24.10
2016,08,25,16,02,24.20
2016,08,25,16,03,24.20
2016,08,25,16,04,24.10
2016,08,25,16,05,24.20
2016,08,25,16,06,24.20
2016,08,25,16,07,24.20
2016,08,25,16,08,24.20
2016,08,25,16,09,24.20
2016,08,25,16,10,24.20
2016,08,25,16,11,24.20
2016,08,25,16,12,24.20
2016,08,25,16,13,24.20
2016,08,25,16,14,24.20
2016,08,25,16,15,24.30
2016,08,25,16,16,24.30
2016,08,25,16,17,24.30
2016,08,25,16,18,24.30
2016,08,25,16,19,24.30
2016,08,25,16,20,24.30
2016,08,25,16,21,24.20
2016,08,25,16,22,24.20
2016,08,25,16,23,24.30
2016,08,25,16,24,24.30
2016,08,25,16,25,24.30
2016,08,25,16,26,24.40
2016,08,25,16,27,24.50
2016,08,25,16,28,24.50
2016,08,25,16,29,24.50
2016,08,25,16,30,24.50
2016,08,25,16,31,24.50
2016,08,25,16,32,24.50
2016,08,25,16,33,24.60
2016,08,25,16,34,24.60
2016,08,25,16,35,24.70
2016,08,25,16,36,24.70
2016,08,25,16,37,24.70
2016,08,25,16,38,24.80
2016,08,25,16,39,24.80
2016,08,25,16,40,24.80
2016,08,25,16,41,24.70
2016,08,25,16,42,24.70
2016,08,25,16,43,24.70
2016,08,25,16,44,24.60
2016,08,25,16,45,24.60
2016,08,25,16,46,24.60
2016,08,25,16,47,24.70
2016,08,25,16,48,24.70
2016,08,25,16,49,24.70
2016,08,25,16,50,24.70
2016,08,25,16,51,24.70
2016,08,25,16,52,24.80
2016,08,25,16,53,24.80
2016,08,25,16,54,24.80
2016,08,25,16,55,24.80
2016,08,25,16,56,24.80
2016,08,25,16,57,24.80
2016,08,25,16,58,24.80
2016,08,25,16,59,24.70
2016,08,25,17,00,24.60
2016,08,25,17,01,24.50
2016,08,25,17,02,24.50
2016,08,25,17,03,24.50
2016,08,25,17,04,24.50
2016,08,25,17,05,24.50
2016,08,25,17,06,24.50
2016,08,25,17,07,24.50
2016,08,25,17,08,24.50
2016,08,25,17,09,24.50
2016,08,25,17,10,24.40
2016,08,25,17,11,24.30
2016,08,25,17,12,24.20
2016,08,25,17,13,24.10
2016,08,25,17,14,24.00
2016,08,25,17,15,23.90
2016,08,25,17,16,23.80
2016,08,25,17,17,23.70
2016,08,25,17,18,23.60
2016,08,25,17,19,23.60
2016,08,25,17,20,23.60
2016,08,25,17,21,23.60
2016,08,25,17,22,23.60